Regional Weather Roundup
Issued by NWS Cleveland, OH

Home | Current Version | Previous Version | Text Only | Print | Product List | Glossary Off
Versions: 1 2 3 4 5 6 7 8 9 10 11 12 13 14 15 16 17 18 19 20 21 22 23 24 25 26 27 28 29 30 31 32 33 34 35 36 37 38 39 40 41 42 43 44 45 46 47 48 49 50

000
ASUS41 KCLE 291602
RWRCLE
OHIO REGIONAL WEATHER ROUNDUP
NATIONAL WEATHER SERVICE CLEVELAND, OH
1200 PM EDT WED JUL 29 2015

NOTE: "FAIR" INDICATES FEW OR NO CLOUDS BELOW 12,000 FEET WITH NO
SIGNIFICANT WEATHER AND/OR OBSTRUCTIONS TO VISIBILITY.

OHZ001>008-015>018-024>027-034-035-043-044-291700-
   NORTHWEST OHIO

CITY           SKY/WX    TMP DP  RH WIND       PRES   REMARKS
DEFIANCE       MOSUNNY   87  72  60 VRB7      29.95S HX  93
FINDLAY        MOSUNNY   88  72  58 SW7       29.96F HX  94
TOLEDO EXPRESS PTSUNNY   87  73  62 S7        29.95S HX  94
TOLEDO EXEC    SUNNY     88  71  57 S10       29.96S HX  94
LIMA           PTSUNNY   86  72  62 SW7       29.98F HX  92
$$

OHZ009>014-019>023-028>033-038-089-291700-
   NORTHEAST OHIO

CITY           SKY/WX    TMP DP  RH WIND       PRES   REMARKS
CLE-HOPKINS    MOSUNNY   88  64  45 S6          N/A
CLE-LAKEFRONT  PTSUNNY   84  70  62 NW5       29.96F
CUY CO. ARPT   PTSUNNY   88  61  40 W14       29.99F
LORAIN-ELYRIA  MOSUNNY   86  65  49 SW6       29.99F
ASHTABULA      MOSUNNY   84  71  65 S5        30.00F
AKRON-CANTON   SUNNY     87  64  46 CALM      30.01F
WOOSTER        SUNNY     86  66  51 CALM      30.02S
MANSFIELD      MOSUNNY   86  68  54 CALM      30.02F
YOUNGSTOWN     CLOUDY    85  70  60 VRB6      30.01F
$$

OHZ042-051>053-060>062-070>072-077>081-291700-
  SOUTHWEST OHIO

CITY           SKY/WX    TMP DP  RH WIND       PRES   REMARKS
CINC-COVINGTON PTSUNNY   88  74  63 VRB6      30.00S HX  96
CINC-LUNKEN    MOSUNNY   88  76  67 VRB3      29.98F HX  99
HAMILTON       MOSUNNY   90  74  59 W5        29.99F HX  99
DAYTON         PTSUNNY   85  75  72 SW6       30.01S HX  93
WRIGHT-PAT AFB PTSUNNY   87  75  68 VRB5      29.99S HX  96
DAYTON GENERAL MOSUNNY   87  72  60 W6        30.00S HX  93
WILMINGTON     MOSUNNY   85  72  65 VRB5      30.01S HX  91
$$

OHZ036-037-039>041-045>050-054>059-063>069-073>076-082>088-291700-
  CENTRAL AND SOUTHEAST OHIO

CITY           SKY/WX    TMP DP  RH WIND       PRES   REMARKS
COLUMBUS       MOSUNNY   86  69  56 W3        29.99F HX  90
OSU AIRPORT    SUNNY     86  70  58 CALM      29.99F HX  90
BOLTON FIELD   SUNNY     84  73  70 CALM      30.01S HX  91
RICKENBACK AFB SUNNY     85  72  66 S5        29.99F HX  90
NEWARK         MOSUNNY   87  70  56 S5        30.00S HX  92
MARION         MOSUNNY   86  69  56 CALM      30.00F HX  90
LANCASTER      MOSUNNY   87  72  60 VRB5      30.01S HX  93
ZANESVILLE     MOSUNNY   86  69  56 VRB5      30.01S HAZE    HX  90
NEW PHILLY     SUNNY     84  71  65 CALM      30.01S
$$


USA.gov is the U.S. government's official web portal to all federal, state and local government web resources and services.